Location: Bismarck
(46.7731°N, 100.8200°W)
Time: 09:46:12
(UTC-05:00)

ISS - All Passes

Search period start: 26 September 2017 00:00
Search period end: 06 October 2017 00:00
Orbit: 401 x 407 km, 51.6° (Epoch: 26 September)

Date Brightness Start Highest point End Pass type
(mag) Time Alt. Az. Time Alt. Az. Time Alt. Az.
26 Sep - 01:16:14 10° WNW 01:19:23 40° NNE 01:22:31 10° E night (unlit)
26 Sep - 02:52:43 10° WNW 02:55:59 60° SSW 02:59:13 10° SE night (unlit)
26 Sep - 04:31:48 10° SW 04:31:52 10° SW 04:31:56 10° SW night (unlit)
26 Sep - 21:10:14 10° SW 21:13:24 50° SSE 21:16:37 10° ENE visible
26 Sep - 22:46:48 10° W 22:49:57 43° NNW 22:53:07 10° ENE visible
27 Sep - 00:23:49 10° WNW 00:26:53 35° N 00:29:57 10° ENE night (unlit)
27 Sep - 02:00:20 10° WNW 02:03:39 85° NNE 02:06:57 10° ESE night (unlit)
27 Sep - 03:37:29 10° W 03:39:46 18° SW 03:42:03 10° S night (unlit)
27 Sep - 20:18:16 10° SSW 20:21:09 30° SE 20:24:05 10° E visible
27 Sep - 21:54:16 10° W 21:57:30 57° NNW 22:00:45 10° ENE visible
27 Sep - 23:31:21 10° WNW 23:34:22 33° N 23:37:24 10° ENE night (unlit)
28 Sep - 01:07:58 10° WNW 01:11:14 57° NNE 01:14:30 10° E night (unlit)
28 Sep - 02:44:39 10° W 02:47:35 29° SW 02:50:29 10° SSE night (unlit)
28 Sep - 19:26:41 10° S 19:28:57 18° SE 19:31:15 10° E daylight
28 Sep - 21:01:49 10° WSW 21:05:05 84° NNW 21:08:23 10° ENE visible
28 Sep - 22:38:47 10° WNW 22:41:50 34° N 22:44:54 10° ENE visible
29 Sep - 00:15:36 10° WNW 00:18:46 43° NNE 00:21:56 10° E night (unlit)
29 Sep - 01:52:06 10° WNW 01:55:18 50° SSW 01:58:30 10° SE night (unlit)
29 Sep - 18:36:42 10° SE 18:36:50 10° SE 18:36:58 10° SE daylight
29 Sep - 20:09:29 10° SW 20:12:43 61° SSE 20:15:58 10° ENE visible
29 Sep - 21:46:11 10° W 21:49:19 40° NNW 21:52:27 10° ENE visible
29 Sep - 23:23:10 10° WNW 23:26:15 36° N 23:29:20 10° ENE visible
30 Sep - 00:59:39 10° WNW 01:02:58 83° SSW 01:06:15 10° ESE night (unlit)
30 Sep - 02:37:05 10° W 02:39:00 15° SW 02:40:54 10° S night (unlit)
30 Sep - 19:17:23 10° SSW 19:20:24 35° SE 19:23:26 10° ENE daylight
30 Sep - 20:53:36 10° W 20:56:49 51° NNW 21:00:02 10° ENE visible
30 Sep - 22:30:41 10° WNW 22:33:42 33° N 22:36:44 10° ENE visible
01 Oct - 00:07:16 10° WNW 00:10:32 65° NNE 00:13:48 10° ESE night (unlit)
01 Oct - 01:44:03 10° W 01:46:48 25° SW 01:49:32 10° SSE night (unlit)
01 Oct - 18:25:37 10° S 18:28:09 21° SE 18:30:41 10° E daylight
01 Oct - 20:01:04 10° WSW 20:04:20 73° NNW 20:07:37 10° ENE visible
01 Oct - 21:38:06 10° WNW 21:41:08 34° N 21:44:10 10° ENE visible
01 Oct - 23:14:51 10° WNW 23:18:03 47° NNE 23:21:15 10° E visible
02 Oct - 00:51:23 10° WNW 00:54:31 41° SW 00:57:38 10° SE night (unlit)
02 Oct - 17:34:33 10° SSE 17:35:57 12° SE 17:37:22 10° ESE daylight
02 Oct - 19:08:39 10° SW 19:11:55 72° SSE 19:15:11 10° ENE daylight
02 Oct - 20:45:29 10° W 20:48:34 37° N 20:51:40 10° ENE visible
02 Oct - 22:22:24 10° WNW 22:25:31 38° N 22:28:37 10° E visible
02 Oct - 23:58:53 10° WNW 00:02:09 71° SSW 00:05:25 10° SE night (unlit)
03 Oct - 01:36:44 10° WSW 01:38:07 12° SW 01:39:29 10° SSW night (unlit)
03 Oct - 18:16:26 10° SW 18:19:32 42° SE 18:22:40 10° ENE daylight
03 Oct - 19:52:50 10° W 19:56:01 46° NNW 19:59:12 10° ENE visible
03 Oct - 21:29:53 10° WNW 21:32:55 34° N 21:35:58 10° ENE visible
03 Oct - 23:06:26 10° WNW 23:09:43 74° NNE 23:13:00 10° ESE visible
04 Oct - 00:43:21 10° W 00:45:54 21° SW 00:48:26 10° S night (unlit)
04 Oct - 17:24:29 10° SSW 17:27:13 25° SE 17:29:58 10° E daylight
04 Oct - 19:00:14 10° WSW 19:03:30 64° NNW 19:06:45 10° ENE daylight
04 Oct - 20:37:17 10° WNW 20:40:19 33° N 20:43:21 10° ENE visible
04 Oct - 22:13:59 10° WNW 22:17:12 51° NNE 22:20:25 10° E visible
04 Oct - 23:50:35 10° WNW 23:53:36 35° SW 23:56:38 10° SSE night (unlit)
05 Oct - 16:33:03 10° S 16:34:58 15° SE 16:36:53 10° E daylight
05 Oct - 18:07:44 10° WSW 18:11:00 84° SSE 18:14:17 10° ENE daylight
05 Oct - 19:44:38 10° WNW 19:47:42 36° N 19:50:47 10° ENE visible
05 Oct - 21:21:30 10° WNW 21:24:38 40° NNE 21:27:46 10° E visible
05 Oct - 22:58:00 10° WNW 23:01:13 59° SSW 23:04:28 10° SE visible
